STARLINK-32512, 62027

Orbit data source: Space-Track

STARLINK-32512, 62027 is a payload satellite owned by SpaceX/Seattle (US) in LEO that was launched on Mon, 18 Nov 2024 UTC via an FALCON 9 launch vehicle from the Air Force Western Test Range (AFWTR). Payloads include a variety of satellites, spacecraft, and rockets equipped with specific instruments for various scientific and technological missions. These include communications satellites like Starlink; space stations such as the ISS; scientific satellites like the Hubble; Earth observation satellites from companies like Planet Labs, Umbra, and HawkEye 360; GPS; miniature CubeSats for education and research; and military/defense satellites.

Loading next visibility...
STARLINK-32512 details
Identifier
62027, 2024-213V
Orbit
LEO
Last TLE update8 hours ago
Origin
Flag of USSpaceX/Seattle (US)
ManufacturerSpaceX/Seattle
MissionOperational spacecraft
Bus & MotorSTARLINK V2M, Unknown motor
Mass730 kg wet, ~700 kg dry
Launch date (UTC)
2024-11-18 (1 month ago)
Launch vehicle
FALCON 9
Launch site
Air Force Western Test Range (AFWTR)
Object type
Payload
Rocket body
Debris
Shape & HBRUnknown
Radar Cross SectionLarge (>1 m²)

Expand to show TLE details & history

TLE from 8 hours ago
0 STARLINK-32512
1 62027U 24213V   24361.14815780 -.00000013  00000-0  96408-5 0  9996
2 62027  53.1629  50.6838 0000654  60.2960 299.8110 15.39605406  6626
Epoch: 2024-12-26T03:33Z
Definitive object data (Epoch: 2024-12-26T03:33:20.833Z)
Latitude-0.00004°
Longitude-97.78475°
Altitude447.957 km
Speed7.645 km/s
True Right ascension03h 22m 44s
True Declination0° 00' 00"
Sunlit
Object was in full shadow at TLE epoch
Visualization TLE readout
Latitude-9.7433°
Longitude-106.65327°
Altitude449.825 km
Speed7.643 km/s
Apparent Right ascension01h 04m 44s
Apparent Declination-27° 32' 34"
Sunlit
Object is in full shadow
Visualization observer readout
Local Sidereal Time10:38:54
Azimuth281.054° WNW
Elevation-57.53°
Doppler factor1
Orbital elements
Apogee altitude447.979 km
Perigee altitude447.086 km
Semi-major axis6,825.669 km
Eccentricity0.0000654
Inclination53.1629°
RAAN50.6838°
Arg. of periapsis60.296°
True anomaly299.8045°
Mean anomaly299.811°
Eccentric anomaly299.80775°
Mean motion3.8488 °/min
BSTAR0.0000096408
Orbital period93.54 mins
Loading maneuver chart data...
Loading historical data...
Loading historical data...
Loading historical data...
Loading historical data...
Loading historical data...
Loading historical data...
Loading historical data...

STARLINK-32512 Visibility forecast

Observer location: undefined°, undefined

Span
Click to sort rows by Start time (UTC) header in descending order
Start Az.
Max El. time (UTC)
Max El. Az.
Max El.
End time (UTC)
End Az.
4 mins2024-12-26 11:47:35.096Z340.704° N2024-12-26 11:49:35.096Z18.605° NNE17.995°2024-12-26 11:51:35.096Z60.86° ENE
5 mins2024-12-26 13:25:35.096Z302.724° NW2024-12-26 13:27:35.096Z195.118° SSW43.546°2024-12-26 13:30:35.096Z137.737° SSE
6 mins2024-12-27 06:13:35.096Z232.526° WSW2024-12-27 06:16:35.096Z8.606° NNE44.394°2024-12-27 06:19:35.096Z48.253° ENE
|